Location: Pordenone
(45.9640°N, 12.6580°E)
Time: 02:58:50
(UTC+02:00)

ISS - Pass Details

Date: 19 May 2021
Orbit: 417 x 422 km, 51.6° (Epoch: 14 June)

Event Time Altitude Azimuth Distance (km) Brightness Sun altitude
Rises 23:42:39 0° 289° (WNW) 2,367 0.6 -21.4°
Reaches altitude 10° 23:44:55 10° 300° (WNW) 1,504 -0.3 -21.6°
Maximum altitude 23:47:57 30° 4° (N) 783 -1.8 -21.7°
Enters shadow 23:50:24 14° 62° (ENE) 1,299 -1.2 -21.9°
